TimeMDT,TemperatureF,Dew PointF,Humidity,Sea Level PressureIn,VisibilityMPH,Wind Direction,Wind SpeedMPH,Gust SpeedMPH,PrecipitationIn,Events,Conditions,WindDirDegrees,DateUTC
12:53 AM,57.0,34.0,42,29.78,10.0,WSW,9.2,-,N/A,,Clear,250,2012-08-15 06:53:00
1:53 AM,57.9,36.0,44,29.77,10.0,SSW,10.4,-,N/A,,Clear,210,2012-08-15 07:53:00
2:53 AM,60.1,35.1,39,29.76,10.0,SW,13.8,-,N/A,,Clear,230,2012-08-15 08:53:00
3:53 AM,55.9,36.0,47,29.78,10.0,SW,15.0,-,N/A,,Clear,220,2012-08-15 09:53:00
4:53 AM,55.0,37.0,51,29.78,10.0,SW,12.7,-,N/A,,Clear,220,2012-08-15 10:53:00
5:53 AM,54.0,36.0,51,29.80,10.0,SW,11.5,-,N/A,,Clear,220,2012-08-15 11:53:00
6:53 AM,55.9,35.1,45,29.82,10.0,WSW,9.2,-,N/A,,Clear,240,2012-08-15 12:53:00
7:53 AM,64.0,36.0,35,29.84,10.0,WSW,10.4,-,N/A,,Clear,250,2012-08-15 13:53:00
8:53 AM,71.1,33.1,25,29.82,10.0,West,16.1,-,N/A,,Clear,260,2012-08-15 14:53:00
9:53 AM,77.0,28.0,17,29.81,10.0,WNW,16.1,-,N/A,,Clear,290,2012-08-15 15:53:00
10:53 AM,77.0,35.1,22,29.83,10.0,NE,10.4,-,N/A,,Clear,50,2012-08-15 16:53:00
11:53 AM,79.0,26.1,14,29.82,10.0,Variable,5.8,-,N/A,,Clear,0,2012-08-15 17:53:00
12:53 PM,82.0,21.9,11,29.79,10.0,WNW,11.5,32.2,N/A,,Clear,300,2012-08-15 18:53:00
1:53 PM,82.0,24.1,12,29.79,10.0,WSW,15.0,25.3,N/A,,Clear,250,2012-08-15 19:53:00
2:53 PM,86.0,28.9,13,29.76,6.0,West,15.0,20.7,N/A,,Haze,260,2012-08-15 20:53:00
3:53 PM,77.0,42.1,29,29.81,10.0,ENE,19.6,-,N/A,,Partly Cloudy,60,2012-08-15 21:53:00
4:00 PM,75.2,44.6,34,30.16,10.0,ENE,19.6,28.8,N/A,,Partly Cloudy,60,2012-08-15 22:00:00
4:53 PM,71.1,44.1,38,29.86,10.0,ENE,20.7,25.3,N/A,,Clear,70,2012-08-15 22:53:00
5:53 PM,66.0,45.0,47,29.89,10.0,ENE,23.0,28.8,N/A,,Clear,70,2012-08-15 23:53:00
6:53 PM,60.1,45.0,57,29.95,10.0,East,19.6,25.3,N/A,,Clear,80,2012-08-16 00:53:00
7:53 PM,55.4,44.6,67,30.23,10.0,East,13.8,-,N/A,,Clear,80,2012-08-16 01:53:00
8:53 PM,54.0,43.0,66,29.96,10.0,East,8.1,-,N/A,,Clear,90,2012-08-16 02:53:00
9:53 PM,55.0,44.1,67,29.97,10.0,East,16.1,23.0,N/A,,Clear,90,2012-08-16 03:53:00
10:53 PM,53.6,42.8,67,30.33,10.0,East,9.2,-,N/A,,Partly Cloudy,90,2012-08-16 04:53:00
11:53 PM,53.1,43.0,69,30.01,10.0,East,11.5,-,N/A,,Mostly Cloudy,90,2012-08-16 05:53:00